EW3711 Weather Reports


time (UTC)temp
C
wind
direction
speed
KPH
gust
KPH
rain 1hr
cm
rain 24hr
cm
rain mn
cm
humidity
%
barometer
mb
20260507155921 7 298 1.6 16.1 0.00 0.00 0.00 42 1010.3
20260507155418 7 251 1.6 12.9 0.00 0.00 0.00 42 1010.3
20260507154915 7 217 4.8 12.9 0.00 0.00 0.00 42 1010.3
20260507154412 7 207 3.2 12.9 0.00 0.00 0.00 42 1010.3
20260507153909 7 212 0.0 12.9 0.00 0.00 0.00 43 1010.3
20260507153405 6 227 0.0 12.9 0.00 0.00 0.00 44 1010.3
20260507152902 6 252 0.0 8.0 0.00 0.00 0.00 43 1010.3
20260507152358 6 300 0.0 6.4 0.00 0.00 0.00 45 1010.3
20260507151854 6 285 0.0 6.4 0.00 0.00 0.00 46 1010.3
20260507151351 6 287 1.6 11.3 0.00 0.00 0.00 46 1010.3
20260507150848 6 226 1.6 11.3 0.00 0.00 0.00 46 1010.3
20260507150344 6 283 1.6 9.7 0.00 0.00 0.00 46 1010.3
20260507145840 6 308 1.6 9.7 0.00 0.00 0.00 48 1010.3
20260507145338 6 226 1.6 8.0 0.00 0.00 0.00 47 1010.3
20260507144834 6 336 1.6 4.8 0.00 0.00 0.00 47 1010.3
20260507144331 6 321 0.0 4.8 0.00 0.00 0.00 48 1010.3
20260507143828 6 336 0.0 0.0 0.00 0.00 0.00 48 1010.3
20260507143325 6 257 0.0 0.0 0.00 0.00 0.00 50 1010.3
20260507142821 6 257 0.0 0.0 0.00 0.00 0.00 49 1010.3
20260507142317 6 155 0.0 0.0 0.00 0.00 0.00 53 1010.3
20260507141814 5 75 0.0 0.0 0.00 0.00 0.00 52 1010.3
20260507141311 5 75 0.0 0.0 0.00 0.00 0.00 56 1010.3
20260507140807 5 126 0.0 0.0 0.00 0.00 0.00 55 1010.3
20260507140305 5 115 0.0 0.0 0.00 0.00 0.00 57 1010.3
20260507135802 4 65 0.0 0.0 0.00 0.00 0.00 58 1010.3
20260507135259 4 53 0.0 0.0 0.00 0.00 0.00 59 1010.3
20260507134755 3 70 0.0 0.0 0.00 0.00 0.00 64 1010.3
20260507134252 2 8 0.0 0.0 0.00 0.00 0.00 66 1010.3
20260507133748 2 8 0.0 0.0 0.00 0.00 0.00 69 1010.3
20260507133244 1 8 0.0 0.0 0.00 0.00 0.00 70 1010.3
20260507132742 1 8 0.0 0.0 0.00 0.00 0.00 73 1010.3
20260507132239 0 8 0.0 0.0 0.00 0.00 0.00 78 1010.3
20260507131736 0 8 0.0 0.0 0.00 0.00 0.00 79 1010.3
20260507131233 0 8 0.0 0.0 0.00 0.00 0.00 81 1010.3
20260507130729 -1 8 0.0 0.0 0.00 0.00 0.00 82 1010.3
20260507130227 -1 8 0.0 0.0 0.00 0.00 0.00 82 1010.3
20260507125726 -1 8 0.0 0.0 0.00 0.00 0.00 83 1010.3
20260507125223 -2 7 0.0 0.0 0.00 0.00 0.00 84 1010.3
20260507124720 -2 8 0.0 0.0 0.00 0.00 0.00 85 1010.3
20260507124217 -2 7 0.0 0.0 0.00 0.00 0.00 85 1010.3
20260507123715 -2 7 0.0 0.0 0.00 0.00 0.00 85 1010.3
20260507123212 -2 7 0.0 0.0 0.00 0.00 0.00 85 1010.3
20260507122707 -3 8 0.0 0.0 0.00 0.00 0.00 85 1010.3
20260507122203 -3 8 0.0 0.0 0.00 0.00 0.00 85 1010.3
20260507121659 -3 8 0.0 0.0 0.00 0.00 0.00 85 1010.3
20260507121155 -3 8 0.0 0.0 0.00 0.00 0.00 85 1010.3
20260507120651 -4 8 0.0 0.0 0.00 0.00 0.00 84 1010.3
20260507120148 -4 8 0.0 0.0 0.00 0.00 0.00 82 1010.3
20260507115644 -5 8 0.0 0.0 0.00 0.00 0.00 83 1010.0
20260507115140 -5 8 0.0 0.0 0.00 0.00 0.00 83 1010.0
20260507114636 -5 8 0.0 0.0 0.00 0.00 0.00 83 1010.0
20260507114134 -5 8 0.0 0.0 0.00 0.00 0.00 83 1010.0
20260507113631 -5 8 0.0 0.0 0.00 0.00 0.00 83 1010.0
20260507113128 -5 8 0.0 0.0 0.00 0.00 0.00 84 1010.0
20260507112626 -5 8 0.0 0.0 0.00 0.00 0.00 84 1010.0
20260507112122 -5 8 0.0 0.0 0.00 0.00 0.00 84 1010.0
20260507111619 -5 8 0.0 0.0 0.00 0.00 0.00 84 1010.0
20260507111116 -5 8 0.0 0.0 0.00 0.00 0.00 84 1010.0
20260507110612 -5 8 0.0 0.0 0.00 0.00 0.00 83 1010.0
20260507110109 -5 8 0.0 0.0 0.00 0.00 0.00 82 1010.0
20260507105606 -5 8 0.0 0.0 0.00 0.00 0.00 83 1010.0
20260507105101 -5 8 0.0 0.0 0.00 0.00 0.00 82 1010.0
20260507104559 -5 8 0.0 0.0 0.00 0.00 0.00 82 1010.0
20260507104055 -5 8 0.0 0.0 0.00 0.00 0.00 81 1010.0
20260507103552 -5 8 0.0 0.0 0.00 0.00 0.00 81 1010.0
20260507103049 -5 8 0.0 0.0 0.00 0.00 0.00 80 1010.0
20260507102545 -5 8 0.0 0.0 0.00 0.00 0.00 81 1010.0
20260507102041 -5 8 0.0 0.0 0.00 0.00 0.00 80 1010.0
20260507101537 -4 8 0.0 0.0 0.00 0.00 0.00 80 1010.0
20260507101033 -4 8 0.0 0.0 0.00 0.00 0.00 80 1010.0
20260507100531 -4 8 0.0 0.0 0.00 0.00 0.00 79 1010.0
20260507100029 -4 8 0.0 0.0 0.00 0.00 0.00 79 1010.0
20260507095527 -4 8 0.0 0.0 0.00 0.00 0.00 80 1010.0
20260507095023 -4 8 0.0 0.0 0.00 0.00 0.00 79 1010.0
20260507094519 -4 8 0.0 0.0 0.00 0.00 0.00 79 1010.0
20260507094016 -4 8 0.0 0.0 0.00 0.00 0.00 79 1010.0
20260507093513 -4 8 0.0 0.0 0.00 0.00 0.00 79 1010.0
20260507093012 -4 8 0.0 0.0 0.00 0.00 0.00 80 1010.0
20260507092508 -4 8 0.0 0.0 0.00 0.00 0.00 80 1010.0
20260507092005 -5 8 0.0 0.0 0.00 0.00 0.00 80 1010.0
20260507091502 -4 8 0.0 0.0 0.00 0.00 0.00 78 1010.0
20260507090957 -4 8 0.0 0.0 0.00 0.00 0.00 79 1010.0
20260507090453 -4 8 0.0 0.0 0.00 0.00 0.00 80 1010.0
20260507085950 -4 356 0.0 0.0 0.00 0.00 0.00 78 1010.0
20260507085448 -4 356 0.0 0.0 0.00 0.00 0.00 78 1010.0
20260507084944 -4 356 0.0 0.0 0.00 0.00 0.00 78 1010.0
20260507084441 -4 356 0.0 0.0 0.00 0.00 0.00 77 1010.0
20260507083938 -3 356 0.0 0.0 0.00 0.00 0.00 78 1010.0
20260507083435 -3 356 0.0 0.0 0.00 0.00 0.00 77 1010.0
20260507082931 -3 356 0.0 0.0 0.00 0.00 0.00 77 1010.0
20260507082427 -3 356 0.0 0.0 0.00 0.00 0.00 77 1010.0
20260507081924 -3 356 0.0 0.0 0.00 0.00 0.00 76 1010.0
20260507081420 -3 356 0.0 0.0 0.00 0.00 0.00 74 1010.0
20260507080917 -3 356 0.0 0.0 0.00 0.00 0.00 75 1010.3
20260507080413 -3 356 0.0 0.0 0.00 0.00 0.00 75 1010.0
20260507075908 -3 356 0.0 0.0 0.00 0.00 0.00 75 1010.0
20260507075405 -3 356 0.0 0.0 0.00 0.00 0.00 75 1010.3
20260507074901 -3 356 0.0 0.0 0.00 0.00 0.00 75 1010.3
20260507074358 -3 356 0.0 0.0 0.00 0.00 0.00 75 1010.3
20260507073856 -3 356 0.0 0.0 0.00 0.00 0.00 74 1010.3
20260507073352 -3 356 0.0 0.0 0.00 0.00 0.00 75 1010.3
20260507072849 -3 356 0.0 0.0 0.00 0.00 0.00 75 1010.3
20260507072347 -3 339 0.0 0.0 0.00 0.00 0.00 75 1010.3
20260507071844 -3 339 0.0 0.0 0.00 0.00 0.00 75 1010.3
20260507071341 -3 342 0.0 0.0 0.00 0.00 0.00 76 1010.3
20260507070837 -3 358 0.0 0.0 0.00 0.00 0.00 76 1010.3
20260507070335 -3 359 0.0 0.0 0.00 0.00 0.00 77 1010.3
20260507065831 -3 18 0.0 0.0 0.00 0.00 0.00 77 1010.3
20260507065328 -3 2 0.0 0.0 0.00 0.00 0.00 76 1010.3
20260507064825 -3 23 0.0 0.0 0.00 0.00 0.00 77 1010.3
20260507064324 -3 23 0.0 0.0 0.00 0.00 0.00 75 1010.3
20260507063821 -2 23 0.0 0.0 0.00 0.00 0.00 75 1010.3
20260507063318 -2 255 0.0 0.0 0.00 0.00 0.00 75 1010.3
20260507062815 -3 300 0.0 0.0 0.00 0.00 0.00 76 1010.3
20260507062312 -2 285 0.0 0.0 0.00 0.00 0.00 76 1010.7
20260507061810 -2 16 0.0 0.0 0.00 0.00 0.00 75 1010.3
20260507061308 -2 16 0.0 0.0 0.00 0.00 0.00 73 1010.3
20260507060806 -2 356 0.0 0.0 0.00 0.00 0.00 74 1010.3
20260507060302 -2 353 0.0 0.0 0.00 0.00 0.00 73 1010.3
20260507055759 -1 29 0.0 0.0 0.00 0.00 0.00 72 1010.3
20260507055254 -1 356 0.0 0.0 0.00 0.00 0.00 72 1010.7
20260507054750 -1 293 1.6 9.7 0.00 0.00 0.00 70 1010.7
20260507054247 -1 38 3.2 9.7 0.00 0.00 0.00 70 1010.3
20260507053744 -1 356 1.6 8.0 0.00 0.00 0.00 70 1010.3
20260507053242 0 25 1.6 8.0 0.00 0.00 0.00 68 1010.3
20260507052741 0 338 1.6 8.0 0.00 0.00 0.00 68 1010.7
20260507052237 0 354 0.0 4.8 0.00 0.00 0.00 69 1010.7
20260507051735 0 345 1.6 9.7 0.00 0.00 0.00 69 1010.3
20260507051231 0 25 4.8 11.3 0.00 0.00 0.00 69 1010.3
20260507050728 0 11 1.6 11.3 0.00 0.00 0.00 71 1010.3
20260507050225 -1 1 0.0 4.8 0.00 0.00 0.00 72 1010.7
20260507045722 -1 20 0.0 0.0 0.00 0.00 0.00 72 1010.7
20260507045218 -1 10 0.0 6.4 0.00 0.00 0.00 73 1010.7
20260507044715 -1 280 0.0 6.4 0.00 0.00 0.00 71 1010.7
20260507044212 -1 354 0.0 6.4 0.00 0.00 0.00 74 1010.7
20260507043708 -1 344 0.0 0.0 0.00 0.00 0.00 75 1010.7
20260507043205 -1 13 0.0 0.0 0.00 0.00 0.00 74 1010.7
20260507042702 -1 6 0.0 0.0 0.00 0.00 0.00 73 1011.0
20260507042156 -1 5 0.0 0.0 0.00 0.00 0.00 71 1011.0
20260507041654 0 347 0.0 0.0 0.00 0.00 0.00 70 1011.0
20260507041150 0 345 0.0 0.0 0.00 0.00 0.00 70 1011.0
20260507040647 0 342 0.0 0.0 0.00 0.00 0.00 70 1011.0
20260507040144 0 355 0.0 0.0 0.00 0.00 0.00 68 1011.0
20260507035639 0 7 1.6 8.0 0.00 0.00 0.00 67 1011.0
20260507035136 0 9 1.6 8.0 0.00 0.00 0.00 66 1011.5
20260507034633 0 21 1.6 6.4 0.00 0.00 0.00 65 1011.5
20260507034130 1 330 0.0 6.4 0.00 0.00 0.00 64 1011.5
20260507033629 1 342 1.6 9.7 0.00 0.00 0.00 63 1011.5
20260507033125 1 345 1.6 9.7 0.00 0.00 0.00 61 1011.5
20260507032623 1 333 0.0 8.0 0.00 0.00 0.00 60 1011.5
20260507032119 2 306 0.0 0.0 0.00 0.00 0.00 58 1011.5
20260507031615 1 337 0.0 6.4 0.00 0.00 0.00 59 1011.0
20260507031112 1 336 0.0 6.4 0.00 0.00 0.00 59 1011.5
20260507030609 2 55 0.0 0.0 0.00 0.00 0.00 59 1011.0
20260507030107 2 58 0.0 0.0 0.00 0.00 0.00 61 1011.0
20260507025604 2 124 0.0 0.0 0.00 0.00 0.00 60 1011.0
20260507025101 2 124 0.0 0.0 0.00 0.00 0.00 60 1011.0
20260507024559 2 124 0.0 0.0 0.00 0.00 0.00 61 1011.0
20260507024056 2 124 0.0 0.0 0.00 0.00 0.00 60 1011.0
20260507023551 2 124 0.0 0.0 0.00 0.00 0.00 57 1011.0
20260507023049 2 130 0.0 0.0 0.00 0.00 0.00 55 1011.0
20260507022545 3 135 0.0 0.0 0.00 0.00 0.00 56 1011.0
20260507022040 3 139 0.0 0.0 0.00 0.00 0.00 56 1011.0
20260507021537 3 158 0.0 3.2 0.00 0.00 0.00 56 1011.0
20260507021034 4 134 0.0 3.2 0.00 0.00 0.00 54 1011.0
20260507020531 4 137 0.0 0.0 0.00 0.00 0.00 51 1011.0
20260507020027 5 141 0.0 0.0 0.00 0.00 0.00 49 1011.0
20260507015526 5 139 0.0 0.0 0.00 0.00 0.00 46 1011.0
20260507015023 6 154 0.0 0.0 0.00 0.00 0.00 42 1011.0
20260507014520 6 143 0.0 0.0 0.00 0.00 0.00 42 1011.0
20260507014015 6 141 0.0 0.0 0.00 0.00 0.00 41 1011.0
20260507013512 6 160 0.0 0.0 0.00 0.00 0.00 40 1011.0
20260507013010 7 204 0.0 0.0 0.00 0.00 0.00 39 1011.0
20260507012506 7 207 0.0 0.0 0.00 0.00 0.00 40 1011.0
20260507012003 7 207 0.0 0.0 0.00 0.00 0.00 41 1011.0
20260507011500 7 207 0.0 0.0 0.00 0.00 0.00 44 1011.0
20260507010956 7 208 0.0 0.0 0.00 0.00 0.00 43 1011.0
20260507010450 6 207 0.0 0.0 0.00 0.00 0.00 43 1011.0
20260507005947 6 207 0.0 0.0 0.00 0.00 0.00 43 1011.0
20260507005444 6 214 0.0 0.0 0.00 0.00 0.00 44 1011.0
20260507004941 6 214 0.0 0.0 0.00 0.00 0.00 42 1011.5
20260507004438 6 226 0.0 0.0 0.00 0.00 0.00 43 1011.5
20260507003936 6 216 0.0 0.0 0.00 0.00 0.00 43 1011.5
20260507003430 6 221 0.0 12.9 0.00 0.00 0.00 43 1011.5
20260507002926 6 224 3.2 14.5 0.00 0.00 0.00 41 1011.5
20260507002422 7 269 6.4 17.7 0.00 0.00 0.00 40 1011.5
20260507001920 7 222 8.0 17.7 0.00 0.00 0.00 42 1011.5
20260507001416 7 255 8.0 27.4 0.00 0.00 0.00 42 1011.5
20260507000914 7 220 8.0 27.4 0.00 0.00 0.00 42 1011.5
20260507000409 7 229 6.4 17.7 0.00 0.00 0.00 41 1011.5
20260506235905 7 206 8.0 19.3 0.00 0.00 0.00 41 1011.5
20260506235403 7 219 8.0 19.3 0.00 0.00 0.00 41 1011.5
20260506234858 7 198 8.0 16.1 0.00 0.00 0.00 42 1011.5
20260506234356 7 226 8.0 19.3 0.00 0.00 0.00 42 1011.8
20260506233854 7 195 8.0 22.5 0.00 0.00 0.00 41 1011.8
20260506233349 7 220 8.0 22.5 0.00 0.00 0.00 41 1011.8
20260506232847 7 213 8.0 20.9 0.00 0.00 0.00 41 1011.8
20260506232342 7 210 6.4 17.7 0.00 0.00 0.00 42 1011.8
20260506231839 7 256 4.8 16.1 0.00 0.00 0.00 43 1011.8
20260506231337 7 209 4.8 17.7 0.00 0.00 0.00 43 1011.8
20260506230834 7 180 3.2 19.3 0.00 0.00 0.00 42 1011.8
20260506230330 7 167 3.2 19.3 0.00 0.00 0.00 43 1011.8
20260506225826 7 222 1.6 11.3 0.00 0.00 0.00 44 1012.1
20260506225324 7 198 1.6 11.3 0.00 0.00 0.00 44 1011.8
20260506224820 7 204 0.0 8.0 0.00 0.00 0.00 47 1012.1
20260506224318 6 228 1.6 9.7 0.00 0.00 0.00 45 1012.1
20260506223814 6 210 6.4 19.3 0.00 0.00 0.00 45 1012.1
20260506223309 6 247 8.0 19.3 0.00 0.00 0.00 46 1012.1
20260506222807 6 195 4.8 19.3 0.00 0.00 0.00 45 1012.1
20260506222305 6 231 3.2 16.1 0.00 0.00 0.00 47 1012.1
20260506221800 6 219 4.8 16.1 0.00 0.00 0.00 45 1012.1
20260506221258 6 221 6.4 16.1 0.00 0.00 0.00 45 1012.1
20260506220755 7 214 8.0 19.3 0.00 0.00 0.00 45 1012.1
20260506220255 7 201 6.4 16.1 0.00 0.00 0.00 47 1012.5
20260506215753 6 224 8.0 19.3 0.00 0.00 0.00 46 1012.5
20260506215248 6 210 9.7 19.3 0.00 0.00 0.00 46 1012.5
20260506214745 7 250 8.0 20.9 0.00 0.00 0.00 47 1012.5
20260506214242 6 208 11.3 24.1 0.00 0.00 0.00 48 1012.5
20260506213740 6 229 11.3 24.1 0.00 0.00 0.00 48 1012.8
20260506213232 6 232 11.3 24.1 0.00 0.00 0.00 48 1012.8
20260506212729 6 217 14.5 24.1 0.00 0.00 0.00 47 1012.8
20260506212224 6 224 14.5 25.7 0.00 0.00 0.00 47 1012.8
20260506211720 6 219 9.7 25.7 0.00 0.00 0.00 49 1012.8
20260506211216 6 213 8.0 24.1 0.00 0.00 0.00 48 1013.2
20260506210713 6 226 9.7 24.1 0.00 0.00 0.00 48 1013.2
20260506210210 6 221 8.0 24.1 0.00 0.00 0.00 50 1013.2
20260506205707 6 227 8.0 24.1 0.00 0.00 0.00 49 1013.2
20260506205202 6 212 8.0 24.1 0.00 0.00 0.00 50 1013.2
20260506204700 5 225 6.4 17.7 0.00 0.00 0.00 50 1013.2
20260506204156 5 243 4.8 17.7 0.00 0.00 0.00 52 1013.2
20260506203655 5 253 8.0 20.9 0.00 0.00 0.00 52 1013.2
20260506203152 5 195 11.3 20.9 0.00 0.00 0.00 53 1013.2
20260506202650 5 228 8.0 20.9 0.00 0.00 0.00 52 1013.6
20260506202145 5 226 6.4 20.9 0.00 0.00 0.00 54 1013.6
20260506201642 5 255 8.0 20.9 0.00 0.00 0.00 52 1013.6
20260506201138 5 200 6.4 19.3 0.00 0.00 0.00 53 1013.6
20260506200635 5 251 4.8 16.1 0.00 0.00 0.00 54 1013.6
20260506200132 5 220 4.8 16.1 0.00 0.00 0.00 54 1013.6
20260506195629 5 239 4.8 16.1 0.00 0.00 0.00 55 1013.6
20260506195125 5 179 6.4 19.3 0.00 0.00 0.00 54 1013.6
20260506194623 5 243 4.8 22.5 0.00 0.00 0.00 55 1013.9
20260506194119 5 221 6.4 19.3 0.00 0.00 0.00 55 1013.9
20260506193617 5 236 4.8 19.3 0.00 0.00 0.00 56 1013.9
20260506193114 5 215 4.8 19.3 0.00 0.00 0.00 57 1013.9
20260506192611 5 241 8.0 22.5 0.00 0.00 0.00 57 1013.9
20260506192106 5 245 6.4 22.5 0.00 0.00 0.00 58 1013.9
20260506191603 4 195 6.4 20.9 0.00 0.00 0.00 57 1013.9
20260506191059 4 241 4.8 24.1 0.00 0.00 0.00 57 1013.9
20260506190557 4 216 9.7 24.1 0.00 0.00 0.00 58 1013.9
20260506190053 4 217 11.3 20.9 0.00 0.00 0.00 57 1013.9
20260506185551 4 227 8.0 20.9 0.00 0.00 0.00 58 1013.9
20260506185047 4 223 6.4 19.3 0.00 0.00 0.00 58 1013.9
20260506184544 4 245 8.0 16.1 0.00 0.00 0.00 57 1013.9
20260506184042 4 250 9.7 27.4 0.00 0.00 0.00 57 1013.9
20260506183537 4 225 11.3 27.4 0.00 0.00 0.00 57 1014.3
20260506183034 4 218 11.3 24.1 0.00 0.00 0.00 58 1014.3
20260506182532 4 250 11.3 25.7 0.00 0.00 0.00 58 1014.3
20260506182029 4 222 12.9 25.7 0.00 0.00 0.00 57 1014.3
20260506181527 4 227 11.3 24.1 0.00 0.00 0.00 59 1014.3
20260506181023 3 259 11.3 25.7 0.00 0.00 0.00 60 1014.3
20260506180520 3 173 14.5 27.4 0.00 0.00 0.00 59 1014.3
20260506180016 3 200 14.5 27.4 0.00 0.00 0.00 60 1014.3
20260506175513 3 221 11.3 25.7 0.00 0.00 0.00 59 1014.6
20260506175009 3 205 9.7 22.5 0.00 0.00 0.00 60 1014.6
20260506174508 3 213 11.3 22.5 0.00 0.00 0.00 60 1014.6
20260506174004 3 197 11.3 25.7 0.00 0.00 0.00 61 1014.6
20260506173502 3 214 12.9 25.7 0.00 0.00 0.00 59 1014.6
20260506172958 3 210 12.9 27.4 0.00 0.00 0.00 60 1014.6
20260506172456 3 220 11.3 27.4 0.00 0.00 0.00 60 1014.6
20260506171952 3 243 9.7 22.5 0.00 0.00 0.00 59 1014.6
20260506171449 4 198 9.7 24.1 0.00 0.00 0.00 59 1014.6
20260506170947 4 242 11.3 24.1 0.00 0.00 0.00 59 1014.6
20260506170443 3 231 14.5 33.8 0.00 0.00 0.00 60 1014.6
20260506165936 3 202 14.5 33.8 0.00 0.00 0.00 59 1015.0
20260506165434 3 268 12.9 25.7 0.00 0.00 0.00 62 1015.0
20260506164930 3 215 12.9 25.7 0.00 0.00 0.00 62 1015.0
20260506164427 3 200 12.9 24.1 0.00 0.00 0.00 63 1015.0
20260506163925 3 224 12.9 27.4 0.00 0.00 0.00 62 1015.0
20260506163425 3 221 16.1 27.4 0.00 0.00 0.00 63 1015.0
20260506162920 3 201 14.5 25.7 0.00 0.00 0.00 63 1015.0
20260506162418 3 218 16.1 29.0 0.00 0.00 0.00 62 1015.3
20260506161910 3 216 16.1 29.0 0.00 0.00 0.00 62 1015.3
20260506161408 3 211 12.9 25.7 0.00 0.00 0.00 62 1015.3
20260506160905 3 237 9.7 22.5 0.00 0.00 0.00 63 1015.3
20260506160402 3 212 9.7 24.1 0.00 0.00 0.00 65 1015.3